Location: Unspecified
(64.9000°N, 0.0000°E)
Time: 03:08:20
(UTC+00:00)

Altair - Pass Details

Date: 23 June 2019
Orbit: 1501 x 1683 km, 47.2° (Epoch: 22 July)

Event Time Altitude Azimuth Distance (km) Brightness Sun altitude
Rises 22:09:38 0° 243° (WSW) 4,763 10.1 1.0°
Reaches altitude 10° 22:13:15 10° 232° (SW) 3,807 9.5 0.8°
Maximum altitude 22:20:55 28° 179° (S) 2,725 8.4 0.5°
Drops below altitude 10° 22:28:47 10° 127° (SE) 3,913 9.1 0.2°
Sets 22:32:33 0° 116° (ESE) 4,917 9.7 0.0°
